W4RJF Weather Reports


Display with metric or nautical units.
time (UTC)temp
F
wind
direction
speed
MPH
gust
MPH
rain 1hr
in
rain 24hr
in
rain mn
in
humidity
%
barometer
mb
20260503002503 52 158 0.0 0.0 0.00 0.14 0.14 92 1013.2
20260503002007 52 158 0.0 0.0 0.00 0.14 0.14 92 1013.2
20260503001516 52 158 0.0 0.0 0.00 0.14 0.14 92 1013.0
20260503001007 52 158 0.0 0.0 0.00 0.14 0.14 92 1012.9
20260503000505 52 157 0.0 0.0 0.00 0.14 0.14 92 1012.7
20260503000020 52 157 0.0 0.0 0.00 0.14 0.14 92 1012.6
20260502235003 52 157 0.0 0.0 0.00 0.14 0.14 90 1012.5
20260502234508 53 157 0.0 0.0 0.00 0.14 0.14 90 1012.5
20260502234001 53 157 0.0 0.0 0.00 0.14 0.14 91 1012.5
20260502233503 53 157 0.0 0.0 0.00 0.14 0.14 90 1012.4
20260502233010 53 157 0.0 0.0 0.00 0.14 0.14 90 1012.5
20260502232006 53 157 0.0 0.0 0.00 0.14 0.14 90 1012.3
20260502231511 53 157 0.0 0.0 0.00 0.14 0.14 90 1012.3
20260502231007 53 157 0.0 0.0 0.00 0.14 0.14 89 1012.2
20260502230026 53 157 0.0 0.0 0.00 0.14 0.14 88 1012.2
20260502225508 53 157 0.0 0.0 0.00 0.14 0.14 88 1012.4
20260502224525 53 157 0.0 0.0 0.00 0.14 0.14 88 1012.2
20260502224008 53 157 0.0 0.0 0.00 0.14 0.14 87 1012.2
20260502223006 53 157 0.0 0.0 0.00 0.14 0.14 86 1012.3
20260502222002 54 157 0.0 0.0 0.00 0.14 0.14 87 1012.3
20260502221527 54 157 0.0 0.0 0.00 0.14 0.14 87 1012.2
20260502220508 54 157 0.0 0.0 0.00 0.14 0.14 87 1012.1
20260502220018 54 157 0.0 0.0 0.00 0.14 0.14 87 1012.1
20260502215507 54 157 0.0 0.0 0.00 0.14 0.14 86 1012.0
20260502214521 54 157 0.0 0.0 0.00 0.14 0.14 85 1012.1
20260502213024 54 157 0.0 2.0 0.00 0.14 0.14 84 1012.0
20260502212004 55 120 0.0 1.0 0.00 0.14 0.14 86 1012.0
20260502211509 55 111 0.0 1.0 0.00 0.14 0.14 85 1012.0
20260502210014 54 149 0.0 2.0 0.00 0.14 0.14 85 1012.1
20260502205008 55 103 0.0 0.0 0.00 0.14 0.14 85 1012.1
20260502204520 54 103 0.0 2.0 0.00 0.14 0.14 86 1012.1
20260502204011 54 103 0.0 2.0 0.00 0.14 0.14 82 1012.1
20260502203021 54 74 0.0 2.0 0.00 0.14 0.14 84 1012.1
20260502202007 54 63 0.0 2.0 0.00 0.14 0.14 85 1012.1
20260502201526 54 53 0.0 2.0 0.00 0.14 0.14 84 1012.1
20260502201004 54 57 0.0 2.0 0.00 0.14 0.14 86 1012.0
20260502200012 54 90 0.0 2.0 0.00 0.14 0.14 84 1012.1
20260502194515 54 96 0.0 2.0 0.00 0.14 0.14 86 1012.3
20260502193510 54 96 0.0 2.0 0.00 0.14 0.14 87 1012.4
20260502193023 54 98 0.0 2.0 0.00 0.14 0.14 88 1012.5
20260502192509 53 81 0.0 2.0 0.00 0.14 0.14 86 1012.5
20260502191526 53 88 0.0 2.0 0.00 0.15 0.14 87 1012.6
20260502191011 53 87 0.0 3.0 0.00 0.15 0.14 90 1012.6
20260502190509 53 80 0.0 3.0 0.00 0.15 0.14 90 1012.6
20260502190014 52 109 0.0 2.0 0.00 0.15 0.14 89 1012.5
20260502185503 52 100 1.0 2.0 0.00 0.15 0.14 90 1012.7
20260502184525 52 80 1.0 3.0 0.00 0.15 0.14 91 1012.7
20260502183028 52 98 0.0 4.0 0.00 0.15 0.14 93 1012.8
20260502182508 52 98 0.0 3.0 0.01 0.16 0.14 92 1012.8
20260502181522 52 109 0.0 2.0 0.01 0.17 0.14 93 1013.2
20260502164011 51 109 0.0 2.0 0.02 0.15 0.12 94 1013.5
20260502163507 51 108 0.0 2.0 0.02 0.15 0.12 94 1013.7
20260502163016 51 91 0.0 2.0 0.02 0.15 0.12 94 1014.0
20260502162008 51 93 0.0 2.0 0.02 0.14 0.11 94 1014.2
20260502152007 52 86 1.0 4.0 0.02 0.12 0.09 94 1013.7
20260502151518 52 98 0.0 3.0 0.02 0.12 0.09 94 1013.7
20260502151008 52 104 0.0 3.0 0.02 0.12 0.09 94 1013.9
20260502130509 52 240 0.0 2.0 0.03 0.08 0.05 93 1013.1
20260502123508 51 297 0.0 2.0 0.02 0.06 0.03 93 1012.4
20260502123030 51 292 0.0 2.0 0.02 0.06 0.03 93 1012.3
20260502122502 51 346 0.0 2.0 0.02 0.06 0.03 93 1012.2
20260502122002 51 346 0.0 2.0 0.02 0.06 0.03 93 1012.4
20260502121503 51 246 0.0 2.0 0.01 0.05 0.02 92 1012.4
20260502121002 51 9 0.0 2.0 0.01 0.05 0.02 93 1012.4
20260502120502 51 324 0.0 2.0 0.01 0.05 0.02 92 1012.4
20260502115502 51 53 0.0 2.0 0.01 0.05 0.02 92 1012.4
20260502115003 51 306 0.0 2.0 0.00 0.04 0.01 92 1012.4
20260502114504 51 52 0.0 2.0 0.01 0.04 0.01 92 1012.5
20260502114003 51 333 0.0 2.0 0.01 0.04 0.01 92 1012.7
20260502113505 51 330 0.0 2.0 0.01 0.04 0.01 92 1012.6
20260502112502 52 57 0.0 1.0 0.01 0.04 0.01 91 1012.7
20260502112002 52 328 0.0 2.0 0.01 0.04 0.01 91 1012.8
20260502111510 52 342 0.0 2.0 0.01 0.04 0.01 91 1012.9
20260502111002 52 329 0.0 2.0 0.01 0.04 0.01 91 1012.8
20260502110502 52 328 0.0 0.0 0.01 0.04 0.01 91 1012.8
20260502110009 52 328 0.0 2.0 0.01 0.04 0.01 91 1013.0
20260502105505 52 328 0.0 2.0 0.01 0.04 0.01 91 1012.9
20260502105003 52 199 0.0 1.0 0.01 0.04 0.01 91 1012.8
20260502104503 52 247 0.0 2.0 0.00 0.03 0.00 91 1012.8
20260502104004 53 9 0.0 2.0 0.00 0.03 0.00 91 1012.8
20260502103503 53 5 0.0 2.0 0.00 0.03 0.00 90 1012.9
20260502103004 53 317 0.0 2.0 0.00 0.03 0.00 90 1012.9
20260502102503 53 294 0.0 2.0 0.00 0.03 0.00 90 1012.9
20260502102002 53 311 0.0 2.0 0.00 0.03 0.00 90 1012.8
20260502101504 53 290 0.0 2.0 0.00 0.03 0.00 90 1012.7
20260502101002 53 350 0.0 2.0 0.00 0.03 0.00 90 1012.8
20260502100505 53 11 0.0 2.0 0.00 0.03 0.00 91 1012.8
20260502091504 53 323 0.0 0.0 0.00 0.03 0.00 92 1012.9
20260502091002 53 323 0.0 0.0 0.00 0.03 0.00 92 1012.9
20260502090502 53 323 0.0 1.0 0.00 0.03 0.00 92 1012.9
20260502071506 52 301 0.0 0.0 0.00 0.03 0.00 93 1011.8
20260502071003 52 301 0.0 0.0 0.00 0.03 0.00 93 1011.8
20260502070503 52 301 0.0 0.0 0.00 0.03 0.00 93 1011.8
20260502070009 52 301 0.0 0.0 0.00 0.03 0.00 93 1011.8
20260502065503 52 301 0.0 0.0 0.00 0.03 0.00 93 1012.0
20260502065003 52 301 0.0 0.0 0.00 0.03 0.00 93 1012.1
20260502064507 52 301 0.0 0.0 0.00 0.03 0.00 93 1012.1
20260502064007 52 250 0.0 0.0 0.00 0.03 0.00 94 1012.2
20260502063504 52 250 0.0 0.0 0.00 0.03 0.00 94 1012.2
20260502063022 52 250 0.0 0.0 0.00 0.03 0.00 94 1012.0
20260502062504 52 250 0.0 0.0 0.00 0.03 0.00 94 1012.3
20260502062005 52 250 0.0 0.0 0.00 0.03 0.00 94 1012.3
20260502061508 52 250 0.0 0.0 0.00 0.03 0.00 94 1012.4
20260502061003 52 250 0.0 0.0 0.00 0.03 0.00 94 1012.3
20260502060503 52 250 0.0 0.0 0.00 0.03 0.00 94 1012.4
20260502060007 52 250 0.0 0.0 0.00 0.03 0.00 94 1012.6
20260502055504 52 250 0.0 0.0 0.00 0.03 0.00 94 1012.5
20260502055004 52 250 0.0 0.0 0.00 0.03 0.00 94 1012.5
20260502054003 52 250 0.0 0.0 0.00 0.03 0.00 93 1012.6
20260502053504 52 250 0.0 0.0 0.00 0.03 0.00 93 1012.7
20260502053008 52 250 0.0 0.0 0.00 0.03 0.00 93 1012.8
20260502052504 52 250 0.0 0.0 0.00 0.03 0.00 93 1012.9
20260502052004 52 250 0.0 0.0 0.00 0.03 0.00 93 1012.9
20260502051510 52 250 0.0 0.0 0.00 0.03 0.00 93 1013.0
20260502050008 52 250 0.0 0.0 0.00 0.03 0.00 93 1013.1
20260502045504 52 250 0.0 0.0 0.00 0.03 0.00 93 1013.2
20260502045004 52 250 0.0 0.0 0.00 0.03 0.00 93 1013.1
20260502044512 52 250 0.0 0.0 0.00 0.03 0.00 93 1013.2
20260502044007 52 250 0.0 0.0 0.00 0.03 0.00 93 1013.3
20260502043504 52 250 0.0 0.0 0.00 0.03 0.00 93 1013.2
20260502043013 52 250 0.0 0.0 0.00 0.03 0.00 92 1013.2
20260502042503 52 250 0.0 0.0 0.00 0.03 0.00 92 1013.2
20260502042005 52 250 0.0 0.0 0.00 0.03 0.00 92 1013.3
20260502041513 52 250 0.0 0.0 0.00 0.03 0.00 92 1013.3
20260502041004 52 250 0.0 0.0 0.00 0.03 0.00 93 1013.3
20260502040504 52 250 0.0 0.0 0.00 0.03 0.00 92 1013.4
20260502040008 52 250 0.0 0.0 0.00 0.03 0.00 92 1013.2
20260502034512 52 234 0.0 0.0 0.00 0.03 0.03 93 1013.2
20260502034004 52 234 0.0 0.0 0.00 0.03 0.03 92 1013.2
20260502033503 52 234 0.0 0.0 0.00 0.03 0.03 92 1013.3
20260502033013 52 234 0.0 0.0 0.00 0.03 0.03 92 1013.4
20260502032506 52 234 0.0 0.0 0.00 0.03 0.03 92 1013.6
20260502032005 52 234 0.0 0.0 0.00 0.03 0.03 92 1013.6
20260502031515 52 234 0.0 0.0 0.00 0.03 0.03 92 1013.6
20260502031005 52 234 0.0 0.0 0.00 0.03 0.03 92 1013.7
20260502030504 52 234 0.0 0.0 0.00 0.03 0.03 92 1013.7
20260502030014 52 234 0.0 0.0 0.00 0.03 0.03 92 1013.7
20260502025506 52 234 0.0 0.0 0.00 0.03 0.03 92 1013.8
20260502025003 52 234 0.0 0.0 0.00 0.03 0.03 92 1013.8
20260502024515 52 234 0.0 0.0 0.00 0.03 0.03 92 1013.8
20260502023018 52 234 0.0 0.0 0.00 0.03 0.03 91 1014.0
20260502022506 52 234 0.0 0.0 0.00 0.03 0.03 91 1014.0
20260502022005 52 235 0.0 0.0 0.00 0.03 0.03 91 1013.9
20260502021518 52 234 0.0 0.0 0.00 0.03 0.03 91 1013.7
20260502021003 52 235 0.0 0.0 0.00 0.03 0.03 91 1013.7
20260502020504 52 234 0.0 0.0 0.00 0.03 0.03 91 1014.0
20260502020020 52 234 0.0 0.0 0.00 0.03 0.03 91 1014.0
20260502015507 52 234 0.0 0.0 0.00 0.03 0.03 90 1013.9
20260502015006 52 234 0.0 0.0 0.00 0.03 0.03 90 1013.9
20260502014525 52 234 0.0 0.0 0.00 0.03 0.03 90 1013.9
20260502014005 52 224 0.0 0.0 0.00 0.03 0.03 90 1013.7
20260502013505 52 224 0.0 0.0 0.00 0.03 0.03 90 1013.6
20260502013013 53 224 0.0 0.0 0.00 0.03 0.03 89 1013.7
20260502011006 53 182 0.0 0.0 0.00 0.03 0.03 90 1013.5
20260502010507 53 182 0.0 0.0 0.00 0.03 0.03 90 1013.5
20260502010023 53 182 0.0 0.0 0.00 0.03 0.03 90 1013.3
20260502005504 53 182 0.0 0.0 0.00 0.03 0.03 89 1013.4
20260502005007 53 182 0.0 0.0 0.00 0.03 0.03 89 1013.3
20260502004520 53 182 0.0 0.0 0.00 0.03 0.03 89 1013.4
20260502004005 53 182 0.0 0.0 0.00 0.03 0.03 88 1013.4
20260502003505 53 182 0.0 0.0 0.00 0.03 0.03 89 1013.1